Regional Weather Roundup
Issued by NWS

Home | Current Version | Previous Version | Graphics & Text | Print | Product List | Glossary On
Versions: 1 2 3 4 5 6 7 8 9 10 11 12 13 14 15 16 17 18 19 20 21 22 23 24 25 26 27 28 29 30 31 32 33 34 35 36 37 38 39 40 41 42 43 44 45 46 47 48 49 50
000
ASUS44 KMEG 170210
RWRTN
TENNESSEE HOURLY STATE WEATHER ROUNDUP
NATIONAL WEATHER SERVICE MEMPHIS TN
900 PM CDT MON OCT 16 2017

TNZ002-004-019-021-049-052-054-088>092-170300-
WEST TENNESSEE

CITY           SKY/WX    TMP DP  RH WIND       PRES   REMARKS
MEMPHIS INTL   CLEAR     56  40  55 N8        30.29S
NWS MEMPHIS      N/A     53 N/A N/A MISG        N/A
JACKSON        CLEAR     48  44  86 CALM      30.31R
COVINGTON      CLEAR     50  43  76 CALM      30.30S
UNION CITY     CLEAR     46  43  87 CALM      30.31S
PARIS          CLEAR     45  43  93 NE3       30.30S
HUNTINGDON     CLEAR     46  43  87 CALM      30.30S
LEXINGTON      CLEAR     50  45  81 N5        30.30S
SELMER         CLEAR     50  45  81 N6        30.29R
SAVANNAH       CLEAR     50  45  81 N6        30.28S
$$

TNZ008-025-027-028-033-062-065-066-170300-
NORTH MIDDLE TENNESSEE

CITY           SKY/WX    TMP DP  RH WIND       PRES   REMARKS
NASHVILLE      CLEAR     54  42  64 N7        30.30S
PORTLAND       CLEAR     48  45  87 CALM      30.30S
CLARKSVILLE    CLEAR     49  41  74 N5        30.31S
SMYRNA         CLEAR     51  43  74 N6        30.31S
COOKEVILLE     CLEAR     43  43 100 CALM      30.29R
GALLATIN       PTCLDY    52  43  71 N6        30.33S
CROSSVILLE     CLEAR     48  38  68 NE5       30.30R
$$

TNZ061-075-076-078-094-096-097-170300-
SOUTH MIDDLE TENNESSEE

CITY           SKY/WX    TMP DP  RH WIND       PRES   REMARKS
FAYETTEVILLE   CLEAR     52  43  71 N7        30.26S
TULLAHOMA      CLEAR     50  41  71 N5        30.29R
WINCHESTER     CLEAR     46  43  87 CALM        N/A
COLUMBIA       CLEAR     52  43  71 CALM      30.27S
SHELBYVILLE    CLEAR     52  43  71 NE7       30.29R
$$

TNZ017-018-042-046-047-170300-
NORTHEAST TENNESSEE

CITY           SKY/WX    TMP DP  RH WIND       PRES   REMARKS
TRI CITIES     CLEAR     45  41  86 CALM      30.30R
ELIZABETHTON   CLEAR     43  41  93 CALM      30.30R
$$

TNZ012-013-036-069-073-074-170300-
CENTRAL EAST TENNESSEE

CITY           SKY/WX    TMP DP  RH WIND       PRES   REMARKS
KNOXVILLE      CLEAR     53  44  71 N8        30.26R
OAK RIDGE      CLEAR     50  44  80 CALM      30.30R
DOWNTOWN KNOXV CLEAR     54  45  71 CALM      30.28S
GATLINBURG     CLEAR     48  46  93 CALM      30.28R
MORRISTOWN     CLEAR     50  41  71 CALM      30.29R
JACKSBORO      CLEAR     46  45  93 CALM      30.34R
$$

TNZ083-085-099-170300-
SOUTHEAST TENNESSEE

CITY           SKY/WX    TMP DP  RH WIND       PRES   REMARKS
CHATTANOOGA    CLEAR     57  41  55 N14       30.27R
DAYTON         CLEAR     52  45  76 VRB3      30.26S
$$

SKY/WX REPORTED AS FAIR MEANS FEW OR NO CLOUDS BELOW
12 THOUSAND FEET.




USA.gov is the U.S. government's official web portal to all federal, state and local government web resources and services.